sat.trackr.live / text

‹ back to catalog

STARLINK-35767

NORAD 67058 · 2025-294AE

PAYLOAD ACTIVE UNKNOWN

§ Identity

Operator
Country
US
Launch date
2025-12-11
Launch site
AFETR
Launch vehicle
Mass (kg)
RCS (m²)

Purposes: comms

External: N2YO · Heavens-Above · Gunter

§ Orbital elements

Epoch: 2026-05-24T18:48:54.756576Z

Period
94.27 min
Inclination
43.0009°
Eccentricity
0.0001523
Mean motion
15.27593181 rev/d
Perigee alt
482.0 km
Apogee alt
484.1 km
Semi-major
6,861.1 km
B*
5.3451e-4
RAAN
328.6071°
Arg perigee
263.0208°
Mean anomaly
97.0470°
Rev number
2,643

§ Raw data

STARLINK-357671 67058U 25294AE  26144.78396709  .00014481  00000+0  53451-3 0  99922 67058  43.0009 328.6071 0001523 263.0208  97.0470 15.27593181 26437

JSON: /api/v1/satellites/67058 · /tle

For live sub-satellite position, see the globe view (requires WebGL).

§ Visibility from observer

Set your observer location to see the next 7 days of passes ≥ 10°. The values pass through the URL so the page stays shareable.

No JS? Fill the form by hand. The geolocation button needs JavaScript.